Regional Weather Roundup
Issued by NWS Upton, NY

Current Version | Previous Version | Graphics & Text | Print | Product List | Glossary Off
Versions: 1 2 3 4 5 6 7 8 9 10 11 12 13 14 15 16 17 18 19 20 21 22 23 24 25 26 27 28 29 30 31 32 33 34 35 36 37 38 39 40 41 42 43 44 45 46 47 48 49 50

000
ASUS41 KOKX 281408
RWROKX

REGIONAL WEATHER ROUNDUP
NATIONAL WEATHER SERVICE NEW YORK NY
1000 AM EDT THU MAY 28 2015

NOTE: "FAIR" INDICATES FEW OR NO CLOUDS BELOW 12,000 FEET WITH NO
SIGNIFICANT WEATHER AND/OR OBSTRUCTIONS TO VISIBILITY.

NYZ071-072-176-178-NJZ106-104-281500-
NEW YORK CITY METRO AREA


CITY           SKY/WX    TMP DP  RH WIND       PRES   REMARKS
CENTRAL PARK   CLOUDY    73  67  81 CALM      30.20S HAZE
LAGUARDIA APRT PTSUNNY   71  63  75 S8        30.17S
KENNEDY INTL   CLOUDY    65  60  84 S9        30.19S HAZE
NEWARK/LIBERTY CLOUDY    74  68  81 W9        30.17S
BRNX BOT. GARD   N/A     70  64  83 E3        30.19R
TETERBORO      CLOUDY    73  66  78 SE5       30.15S HAZE
$$

NYZ177-179-078>081-281500-
LONG ISLAND NEW YORK

CITY           SKY/WX    TMP DP  RH WIND       PRES   REMARKS
FARMINGDALE    CLOUDY    65  61  87 SW9       30.19S
ISLIP          CLOUDY    66  61  84 SW12      30.17F
SHIRLEY        CLOUDY    65  61  87 S12       30.19F
WESTHAMPTON    CLOUDY    64  62  93 SW13      30.20F
MONTAUK POINT    N/A     64  59  83 SW9G17    30.22S
$$

NYZ052-065-067-281500-
HUDSON VALLEY

CITY           SKY/WX    TMP DP  RH WIND       PRES   REMARKS
WHITE PLAINS   CLOUDY    69  65  86 CALM      30.18R FOG
NEWBURGH       PTSUNNY   75  70  83 W9        30.16S
MONTGOMERY       N/A    N/A N/A N/A MISG      30.14S
POUGHKEEPSIE   PTSUNNY   77  67  71 VRB7      30.13S
ALBANY         PTSUNNY   74  65  73 S12       30.11R
$$

NJZ001-105-106-008-010-013-015-019>022-104-281500-
NEW JERSEY

CITY           SKY/WX    TMP DP  RH WIND       PRES   REMARKS
NEWARK/LIBERTY CLOUDY    74  68  81 W9        30.17S
TETERBORO      CLOUDY    73  66  78 SE5       30.15S HAZE
CALDWELL       CLOUDY    74  67  78 S9        30.16F
MORRISTOWN     CLOUDY    77  73  88 SW7       30.17S FOG
SOMERVILLE     CLOUDY    74  69  85 CALM      30.15S
SUSSEX         PTSUNNY   75  67  76 S7        30.16F
ANDOVER          N/A     75  68  78 VRB5      30.16F
TRENTON        CLOUDY    76  69  79 VRB5      30.17S
MILLVILLE      CLOUDY    78  68  71 W7        30.19R
ATLANTIC CITY  PTSUNNY   80  68  66 SW9       30.19S
WRIGHTSTOWN    CLOUDY    75  70  85 W9        30.16R
TOMS RIVER     PTSUNNY  N/A N/A N/A SW8       30.17F
BELMAR         CLOUDY    75  64  69 W7        30.18S
$$

PAZ047>061-062-071-281500-
EASTERN PENNSYLVANIA

CITY           SKY/WX    TMP DP  RH WIND       PRES   REMARKS
PHILADELPHIA   PTSUNNY   77  69  76 SW9       30.17F
ALLENTOWN      PTSUNNY   77  69  76 W7        30.17F
SCRANTON       MOSUNNY   76  64  66 SW12      30.17S
$$

CTZ002-004>006-009-010-012-RIZ004-006-007-MAZ004-011-015-281500-
SOUTHERN NEW ENGLAND
 IN CT

CITY           SKY/WX    TMP DP  RH WIND       PRES   REMARKS
BRADLEY INTL   CLOUDY    71  65  81 S10       30.15S
HARTFORD       CLOUDY    69  65  86 S8        30.16S
DANBURY        CLOUDY    72  65  78 SW9       30.18S
WTRBRY/OXFORD  CLOUDY    68  63  83 SW7       30.19S VSB 3/4
BRIDGEPORT     CLOUDY    66  62  87 SW6       30.18S FOG
MERIDEN        CLOUDY    69  62  78 VRB7      30.17S
NEW HAVEN      CLOUDY    65  62  90 SE5       30.18S FOG
CHESTER        CLOUDY    66  63  88 S7        30.19S FOG
GROTON         CLOUDY    62  58  86 S3        30.19F
WILLIMANTIC    CLOUDY    69  63  81 S8        30.18S

 IN RI

CITY           SKY/WX    TMP DP  RH WIND       PRES   REMARKS
PROVIDENCE     PTSUNNY   71  62  73 S13       30.18F
BLOCK ISLAND   CLOUDY    61  57  88 SW17      30.22S
WESTERLY       CLOUDY    63  58  83 S7        30.20F

 IN MA

CITY           SKY/WX    TMP DP  RH WIND       PRES   REMARKS
BOSTON         PTSUNNY   73  63  70 S12       30.13F
WORCESTER      MOSUNNY   75  64  68 SW12      30.16S
WESTFIELD      CLOUDY    72  66  81 S12       30.13S
PROVINCETOWN   MOSUNNY   66  59  77 SW16G25   30.18S
NANTUCKET      CLOUDY    64  58  80 S16       30.24R
$$

ANZ330-335-338-340-345-350-353-355-281500-
COASTAL MARINE OBSERVATIONS


STATION/POSITION TIME  SKY/WX   TEMP    WIND        PRES    VSBY  WAVE
                                AIR SEA DIR/SP/G                  HT/PER
                 (UTC)          (F)     (DEG/KT/KT) (MB)    (MI)  (FT/S)
NY HARB ENTRANCE 1350            57 49  190/ 10/ 12 1021.5          3/ 6
4S FIRE IS       1303               56                N/A           4/ 6
20S FIRE ISLAND  1350            61 57  210/ 12/ 14 1022.4          4/ 6
GREAT SOUTH BAY  1300            63 67  220/ 12/ 17   N/A
23SW MTP         1350            59 54  210/ 12/ 14 1022.6          4/ 6
HUDSON CANYON    NOT AVBL
KINGS POINT      1300            66 56  190/  7/  9 1021.2
CENTRAL LI SOUND 1300            60 56  150/  4/  6   N/A
EASTERN LI SOUND 1300            59     240/  4/  8   N/A
ROBBINS REEF     1300            65     160/  8/  8 1020.7
$$


>>>>>>>>>>>>>>>>>>>>>>>>>>>> KEY <<<<<<<<<<<<<<<<<<<<<<<<<<<
>                                                          <
>     SKY/WX - SKY CONDITION/PRESENT WEATHER               <
>     TMP    - TEMPERATURE IN FAHRENHEIT                   <
>     DP     - DEWPOINT IN FAHRENHEIT                      <
>     RH     - RELATIVE HUMIDITY IN PERCENT                <
>     WIND   - DIRECTION AND SPEED IN MPH                  <
>     PRES   - MEAN SEA LEVEL PRESSURE IN INCHES OF HG     <
>     WCI    - WIND CHILL INDEX                            <
>     VSB    - VISIBILITY IN MILES                         <
>     HX     - HEAT INDEX                                  <
>     TC     - TEMPERATURE IN CELSIUS                      <
>     VRB    - VARIABLE WIND DIRECTION                     <
>                                                          <
>>>>>>>>>>>>>>>>>>>>>>>>>>>> KEY <<<<<<<<<<<<<<<<<<<<<<<<<<<




USA.gov is the U.S. government's official web portal to all federal, state and local government web resources and services.